{"data":{"norad_id":63271,"intl_designator":"2025-053G","name":"STARLINK-11620 [DTC]","alt_names":[],"object_type":"PAYLOAD","status":"ACTIVE","operator":null,"country":"US","launch_date":"2025-03-15","launch_site_code":"AFETR","launch_vehicle":null,"mission":null,"orbit_class":"UNKNOWN","rcs_meters":null,"size_class":null,"mass_kg":null,"dimensions":null,"purposes":["comms"],"wikipedia_slug":null,"has_3d_model":false,"image_url":null,"decayed_at":null,"tle_current":{"epoch":"2026-09-20T15:04:02.990496Z","epoch_age_seconds":147726,"freshness":"FRESH","line1":"1 63271U 25053G   26263.62781239  .00192788  00000+0  14675-2 0  9990","line2":"2 63271  43.0001  17.6157 0002154 331.0459  29.0289 15.70901105 88323","mean_motion":15.70901105,"eccentricity":0.0002154,"inclination_deg":43.0001,"raan_deg":17.6157,"arg_perigee_deg":331.0459,"mean_anomaly_deg":29.0289,"bstar":0.0014675,"rev_number":8832,"period_min":91.667132667782,"perigee_km":354.86981557609,"apogee_km":357.77101983164,"semimajor_km":6734.4574177039,"source":"CELESTRAK","updated_at":"2026-09-21T09:00:34.963430Z"}}}